�v������,,�����i�g�j,�����t���O,�g�[�i�g�j,�����t���O,,�����iMJ�j,�����t���O,�g�[�iMJ�j,�����t���O
2004/1/1,0:00:00,0,0,0,0,,0,0,0,0
2004/1/1,0:15:00,0,0,0,0,,0,0,0,0
2004/1/1,0:30:00,0,0,0.086,0,,0,0,3.2,0
2004/1/1,0:45:00,0,0,0,0,,0,0,0,0
2004/1/1,1:00:00,0,0,0,0,,0,0,0,0
2004/1/1,1:15:00,0,0,0,0,,0,0,0,0
2004/1/1,1:30:00,0,0,0,0,,0,0,0,0
2004/1/1,1:45:00,0,0,0,0,,0,0,0,0
2004/1/1,2:00:00,0,0,0.084,0,,0,0,3.1,0
2004/1/1,2:15:00,0,0,0,0,,0,0,0,0
2004/1/1,2:30:00,0,0,0,0,,0,0,0,0
2004/1/1,2:45:00,0,0,0,0,,0,0,0,0
2004/1/1,3:00:00,0,0,0,0,,0,0,0,0
2004/1/1,3:15:00,0,0,0,0,,0,0,0,0
2004/1/1,3:30:00,0,0,0,0,,0,0,0,0
2004/1/1,3:45:00,0,0,0.085,0,,0,0,3.1,0
2004/1/1,4:00:00,0,0,0,0,,0,0,0,0
2004/1/1,4:15:00,0,0,0,0,,0,0,0,0
2004/1/1,4:30:00,0,0,0,0,,0,0,0,0
2004/1/1,4:45:00,0,0,0,0,,0,0,0,0
2004/1/1,5:00:00,0,0,0,0,,0,0,0,0
2004/1/1,5:15:00,0,0,0,0,,0,0,0,0
2004/1/1,5:30:00,0,0,0.084,0,,0,0,3.1,0
2004/1/1,5:45:00,0,0,0,0,,0,0,0,0
2004/1/1,6:00:00,0,0,0,0,,0,0,0,0
2004/1/1,6:15:00,0,0,0,0,,0,0,0,0
2004/1/1,6:30:00,0,0,0,0,,0,0,0,0
2004/1/1,6:45:00,0,0,0,0,,0,0,0,0
2004/1/1,7:00:00,0,0,0,0,,0,0,0,0
2004/1/1,7:15:00,0.084,0,0,0,,3.1,0,0,0
2004/1/1,7:30:00,0,0,0,0,,0,0,0,0
2004/1/1,7:45:00,0,0,0,0,,0,0,0,0
2004/1/1,8:00:00,0,0,0,0,,0,0,0,0
2004/1/1,8:15:00,0,0,0.104,0,,0,0,3.8,0
2004/1/1,8:30:00,0.223,0,0,0,,8.2,0,0,0
2004/1/1,8:45:00,0,0,0,0,,0,0,0,0
2004/1/1,9:00:00,0.09,0,0,0,,3.3,0,0,0
2004/1/1,9:15:00,0,0,0,0,,0,0,0,0
2004/1/1,9:30:00,0,0,0,0,,0,0,0,0
2004/1/1,9:45:00,0,0,0,0,,0,0,0,0
2004/1/1,10:00:00,0.088,0,0,0,,3.2,0,0,0
2004/1/1,10:15:00,0,0,0,0,,0,0,0,0
2004/1/1,10:30:00,0,0,0,0,,0,0,0,0
2004/1/1,10:45:00,0,0,0,0,,0,0,0,0
2004/1/1,11:00:00,0,0,0.138,0,,0,0,5.1,0
2004/1/1,11:15:00,0,0,0,0,,0,0,0,0
2004/1/1,11:30:00,0,0,0.111,0,,0,0,4.1,0
2004/1/1,11:45:00,0,0,0,0,,0,0,0,0
2004/1/1,12:00:00,0,0,0,0,,0,0,0,0
2004/1/1,12:15:00,0,0,0,0,,0,0,0,0
2004/1/1,12:30:00,0,0,0,0,,0,0,0,0
2004/1/1,12:45:00,0,0,0,0,,0,0,0,0
2004/1/1,13:00:00,0,0,0,0,,0,0,0,0
2004/1/1,13:15:00,0.083,0,0,0,,3,0,0,0
2004/1/1,13:30:00,0,0,0,0,,0,0,0,0
2004/1/1,13:45:00,0,0,0,0,,0,0,0,0
2004/1/1,14:00:00,0,0,0,0,,0,0,0,0
2004/1/1,14:15:00,0,0,0,0,,0,0,0,0
2004/1/1,14:30:00,0.081,0,0,0,,3,0,0,0
2004/1/1,14:45:00,0.03,0,0,0,,1.1,0,0,0
2004/1/1,15:00:00,0,0,0,0,,0,0,0,0
2004/1/1,15:15:00,0,0,0,0,,0,0,0,0
2004/1/1,15:30:00,0,0,0.104,0,,0,0,3.8,0
2004/1/1,15:45:00,0,0,0,0,,0,0,0,0
2004/1/1,16:00:00,0,0,0,0,,0,0,0,0
2004/1/1,16:15:00,0,0,0,0,,0,0,0,0
2004/1/1,16:30:00,0,0,0,0,,0,0,0,0
2004/1/1,16:45:00,0.089,0,0,0,,3.3,0,0,0
2004/1/1,17:00:00,0,0,0,0,,0,0,0,0
2004/1/1,17:15:00,0,0,0,0,,0,0,0,0
2004/1/1,17:30:00,0,0,0,0,,0,0,0,0
2004/1/1,17:45:00,0,0,0,0,,0,0,0,0
2004/1/1,18:00:00,0,0,0.097,0,,0,0,3.6,0
2004/1/1,18:15:00,0,0,0,0,,0,0,0,0
2004/1/1,18:30:00,0,0,0,0,,0,0,0,0
2004/1/1,18:45:00,0,0,0,0,,0,0,0,0
2004/1/1,19:00:00,0,0,0,0,,0,0,0,0
2004/1/1,19:15:00,0,0,0,0,,0,0,0,0
2004/1/1,19:30:00,0,0,0.112,0,,0,0,4.1,0
2004/1/1,19:45:00,0,0,0,0,,0,0,0,0
2004/1/1,20:00:00,0,0,0.111,0,,0,0,4.1,0
2004/1/1,20:15:00,0,0,0,0,,0,0,0,0
2004/1/1,20:30:00,0,0,0,0,,0,0,0,0
2004/1/1,20:45:00,0,0,0,0,,0,0,0,0
2004/1/1,21:00:00,0.091,0,0,0,,3.3,0,0,0
2004/1/1,21:15:00,0,0,0,0,,0,0,0,0
2004/1/1,21:30:00,0,0,0,0,,0,0,0,0
2004/1/1,21:45:00,0,0,0,0,,0,0,0,0
2004/1/1,22:00:00,0,0,0,0,,0,0,0,0
2004/1/1,22:15:00,0,0,0,0,,0,0,0,0
2004/1/1,22:30:00,0.022,0,0,0,,0.8,0,0,0
2004/1/1,22:45:00,0.064,0,0,0,,2.3,0,0,0
2004/1/1,23:00:00,0,0,0,0,,0,0,0,0
2004/1/1,23:15:00,0,0,0,0,,0,0,0,0
2004/1/1,23:30:00,0,0,0,0,,0,0,0,0
2004/1/1,23:45:00,0.009,0,0,0,,0.3,0,0,0
2004/1/2,0:00:00,0,0,0.085,0,,0,0,3.1,0
2004/1/2,0:15:00,0,0,0,0,,0,0,0,0
2004/1/2,0:30:00,0,0,0,0,,0,0,0,0
2004/1/2,0:45:00,0,0,0,0,,0,0,0,0
2004/1/2,1:00:00,0,0,0,0,,0,0,0,0
2004/1/2,1:15:00,0,0,0,0,,0,0,0,0
2004/1/2,1:30:00,0,0,0.086,0,,0,0,3.1,0
2004/1/2,1:45:00,0,0,0,0,,0,0,0,0
2004/1/2,2:00:00,0,0,0,0,,0,0,0,0
2004/1/2,2:15:00,0,0,0,0,,0,0,0,0
2004/1/2,2:30:00,0,0,0.302,0,,0,0,11.1,0
2004/1/2,2:45:00,0,0,0.323,0,,0,0,11.8,0
2004/1/2,3:00:00,0,0,0.318,0,,0,0,11.8,0
2004/1/2,3:15:00,0,0,0.309,0,,0,0,11.4,0
2004/1/2,3:30:00,0,0,0.307,0,,0,0,11.2,0
2004/1/2,3:45:00,0,0,0.308,0,,0,0,11.4,0
2004/1/2,4:00:00,0,0,0.309,0,,0,0,11.4,0
2004/1/2,4:15:00,0,0,0.122,0,,0,0,4.5,0
2004/1/2,4:30:00,0,0,0,0,,0,0,0,0
2004/1/2,4:45:00,0,0,0,0,,0,0,0,0
2004/1/2,5:00:00,0,0,0,0,,0,0,0,0
2004/1/2,5:15:00,0,0,0,0,,0,0,0,0
2004/1/2,5:30:00,0,0,0,0,,0,0,0,0
2004/1/2,5:45:00,0,0,0,0,,0,0,0,0
2004/1/2,6:00:00,0,0,0.078,0,,0,0,2.9,0
2004/1/2,6:15:00,0,0,0,0,,0,0,0,0
2004/1/2,6:30:00,0,0,0,0,,0,0,0,0
2004/1/2,6:45:00,0,0,0,0,,0,0,0,0
2004/1/2,7:00:00,0,0,0,0,,0,0,0,0
2004/1/2,7:15:00,0,0,0,0,,0,0,0,0
2004/1/2,7:30:00,0.086,0,0,0,,3.1,0,0,0
2004/1/2,7:45:00,0,0,0,0,,0,0,0,0
2004/1/2,8:00:00,0,0,0,0,,0,0,0,0
2004/1/2,8:15:00,0,0,0,0,,0,0,0,0
2004/1/2,8:30:00,0,0,0,0,,0,0,0,0
2004/1/2,8:45:00,0,0,0,0,,0,0,0,0
2004/1/2,9:00:00,0,0,0.111,0,,0,0,4.1,0
2004/1/2,9:15:00,0,0,0,0,,0,0,0,0
2004/1/2,9:30:00,0,0,0.103,0,,0,0,3.8,0
2004/1/2,9:45:00,0,0,0,0,,0,0,0,0
2004/1/2,10:00:00,0.138,0,0,0,,5.1,0,0,0
2004/1/2,10:15:00,0.038,0,0.275,0,,1.4,0,10.1,0
2004/1/2,10:30:00,0,0,0,0,,0,0,0,0
2004/1/2,10:45:00,0,0,0,0,,0,0,0,0
2004/1/2,11:00:00,0,0,0,0,,0,0,0,0
2004/1/2,11:15:00,0,0,0,0,,0,0,0,0
2004/1/2,11:30:00,0,0,0,0,,0,0,0,0
2004/1/2,11:45:00,0.085,0,0,0,,3.1,0,0,0
2004/1/2,12:00:00,0,0,0,0,,0,0,0,0
2004/1/2,12:15:00,0,0,0,0,,0,0,0,0
2004/1/2,12:30:00,0,0,0,0,,0,0,0,0
2004/1/2,12:45:00,0,0,0.107,0,,0,0,3.9,0
2004/1/2,13:00:00,0,0,0,0,,0,0,0,0
2004/1/2,13:15:00,0,0,0,0,,0,0,0,0
2004/1/2,13:30:00,0,0,0,0,,0,0,0,0
2004/1/2,13:45:00,0,0,0,0,,0,0,0,0
2004/1/2,14:00:00,0.091,0,0,0,,3.4,0,0,0
2004/1/2,14:15:00,0,0,0,0,,0,0,0,0
2004/1/2,14:30:00,0,0,0,0,,0,0,0,0
2004/1/2,14:45:00,0,0,0,0,,0,0,0,0
2004/1/2,15:00:00,0,0,0,0,,0,0,0,0
2004/1/2,15:15:00,0,0,0,0,,0,0,0,0
2004/1/2,15:30:00,0,0,0,0,,0,0,0,0
2004/1/2,15:45:00,0.085,0,0,0,,3.1,0,0,0
2004/1/2,16:00:00,0,0,0,0,,0,0,0,0
2004/1/2,16:15:00,0,0,0,0,,0,0,0,0
2004/1/2,16:30:00,0,0,0,0,,0,0,0,0
2004/1/2,16:45:00,0,0,0,0,,0,0,0,0
2004/1/2,17:00:00,0,0,0,0,,0,0,0,0
2004/1/2,17:15:00,0.086,0,0,0,,3.2,0,0,0
2004/1/2,17:30:00,0,0,0,0,,0,0,0,0
2004/1/2,17:45:00,0,0,0,0,,0,0,0,0
2004/1/2,18:00:00,0,0,0,0,,0,0,0,0
2004/1/2,18:15:00,0.1,0,0,0,,3.7,0,0,0
2004/1/2,18:30:00,0,0,0,0,,0,0,0,0
2004/1/2,18:45:00,0,0,0,0,,0,0,0,0
2004/1/2,19:00:00,0,0,0,0,,0,0,0,0
2004/1/2,19:15:00,0.032,0,0.194,0,,1.2,0,7.1,0
2004/1/2,19:30:00,0,0,0,0,,0,0,0,0
2004/1/2,19:45:00,0,0,0.139,0,,0,0,5.1,0
2004/1/2,20:00:00,0,0,0,0,,0,0,0,0
2004/1/2,20:15:00,0,0,0,0,,0,0,0,0
2004/1/2,20:30:00,0,0,0,0,,0,0,0,0
2004/1/2,20:45:00,0.093,0,0,0,,3.4,0,0,0
2004/1/2,21:00:00,0,0,0,0,,0,0,0,0
2004/1/2,21:15:00,0,0,0,0,,0,0,0,0
2004/1/2,21:30:00,0,0,0,0,,0,0,0,0
2004/1/2,21:45:00,0.001,0,0,0,,0,0,0,0
2004/1/2,22:00:00,0,0,0.118,0,,0,0,4.3,0
2004/1/2,22:15:00,0,0,0,0,,0,0,0,0
2004/1/2,22:30:00,0,0,0,0,,0,0,0,0
2004/1/2,22:45:00,0,0,0,0,,0,0,0,0
2004/1/2,23:00:00,0,0,0,0,,0,0,0,0
2004/1/2,23:15:00,0,0,0,0,,0,0,0,0
2004/1/2,23:30:00,0,0,0,0,,0,0,0,0
2004/1/2,23:45:00,0,0,0,0,,0,0,0,0
2004/1/3,0:00:00,0,0,0.074,0,,0,0,2.7,0
2004/1/3,0:15:00,0,0,0,0,,0,0,0,0
2004/1/3,0:30:00,0,0,0,0,,0,0,0,0
2004/1/3,0:45:00,0,0,0,0,,0,0,0,0
2004/1/3,1:00:00,0,0,0,0,,0,0,0,0
2004/1/3,1:15:00,0,0,0,0,,0,0,0,0
2004/1/3,1:30:00,0,0,0.025,0,,0,0,0.9,0
2004/1/3,1:45:00,0,0,0.06,0,,0,0,2.2,0
2004/1/3,2:00:00,0,0,0,0,,0,0,0,0
2004/1/3,2:15:00,0,0,0,0,,0,0,0,0
2004/1/3,2:30:00,0,0,0,0,,0,0,0,0
2004/1/3,2:45:00,0,0,0,0,,0,0,0,0
2004/1/3,3:00:00,0,0,0,0,,0,0,0,0
2004/1/3,3:15:00,0,0,0,0,,0,0,0,0
2004/1/3,3:30:00,0,0,0.085,0,,0,0,3.1,0
2004/1/3,3:45:00,0,0,0,0,,0,0,0,0
2004/1/3,4:00:00,0,0,0,0,,0,0,0,0
2004/1/3,4:15:00,0,0,0,0,,0,0,0,0
2004/1/3,4:30:00,0,0,0,0,,0,0,0,0
2004/1/3,4:45:00,0,0,0,0,,0,0,0,0
2004/1/3,5:00:00,0,0,0.085,0,,0,0,3.1,0
2004/1/3,5:15:00,0,0,0.324,0,,0,0,11.9,0
2004/1/3,5:30:00,0,0,0.317,0,,0,0,11.6,0
2004/1/3,5:45:00,0,0,0.31,0,,0,0,11.4,0
2004/1/3,6:00:00,0,0,0.352,0,,0,0,12.9,0
2004/1/3,6:15:00,0,0,0.241,0,,0,0,8.8,0
2004/1/3,6:30:00,0,0,0,0,,0,0,0,0
2004/1/3,6:45:00,0,0,0,0,,0,0,0,0
2004/1/3,7:00:00,0,0,0,0,,0,0,0,0
2004/1/3,7:15:00,0,0,0,0,,0,0,0,0
2004/1/3,7:30:00,0,0,0,0,,0,0,0,0
2004/1/3,7:45:00,0.081,0,0,0,,3,0,0,0
2004/1/3,8:00:00,0,0,0,0,,0,0,0,0
2004/1/3,8:15:00,0,0,0,0,,0,0,0,0
2004/1/3,8:30:00,0.091,0,0.132,0,,3.3,0,4.8,0
2004/1/3,8:45:00,0.066,0,0.238,0,,2.4,0,8.7,0
2004/1/3,9:00:00,0,0,0,0,,0,0,0,0
2004/1/3,9:15:00,0,0,0.117,0,,0,0,4.3,0
2004/1/3,9:30:00,0,0,0,0,,0,0,0,0
2004/1/3,9:45:00,0,0,0,0,,0,0,0,0
2004/1/3,10:00:00,0.149,0,0,0,,5.5,0,0,0
2004/1/3,10:15:00,0.054,0,0.14,0,,2,0,5.1,0
2004/1/3,10:30:00,0,0,0,0,,0,0,0,0
2004/1/3,10:45:00,0,0,0,0,,0,0,0,0
2004/1/3,11:00:00,0,0,0,0,,0,0,0,0
2004/1/3,11:15:00,0.097,0,0,0,,3.6,0,0,0
2004/1/3,11:30:00,0,0,0,0,,0,0,0,0
2004/1/3,11:45:00,0,0,0,0,,0,0,0,0
2004/1/3,12:00:00,0,0,0,0,,0,0,0,0
2004/1/3,12:15:00,0.085,0,0,0,,3.1,0,0,0
2004/1/3,12:30:00,0,0,0,0,,0,0,0,0
2004/1/3,12:45:00,0,0,0,0,,0,0,0,0
2004/1/3,13:00:00,0,0,0,0,,0,0,0,0
2004/1/3,13:15:00,0.095,0,0,0,,3.5,0,0,0
2004/1/3,13:30:00,0,0,0,0,,0,0,0,0
2004/1/3,13:45:00,0,0,0,0,,0,0,0,0
2004/1/3,14:00:00,0,0,0,0,,0,0,0,0
2004/1/3,14:15:00,0,0,0,0,,0,0,0,0
2004/1/3,14:30:00,0,0,0,0,,0,0,0,0
2004/1/3,14:45:00,0.082,0,0,0,,3,0,0,0
2004/1/3,15:00:00,0,0,0,0,,0,0,0,0
2004/1/3,15:15:00,0,0,0,0,,0,0,0,0
2004/1/3,15:30:00,0,0,0,0,,0,0,0,0
2004/1/3,15:45:00,0,0,0,0,,0,0,0,0
2004/1/3,16:00:00,0,0,0,0,,0,0,0,0
2004/1/3,16:15:00,0,0,0,0,,0,0,0,0
2004/1/3,16:30:00,0.084,0,0,0,,3.1,0,0,0
2004/1/3,16:45:00,0,0,0,0,,0,0,0,0
2004/1/3,17:00:00,0,0,0,0,,0,0,0,0
2004/1/3,17:15:00,0,0,0,0,,0,0,0,0
2004/1/3,17:30:00,0,0,0,0,,0,0,0,0
2004/1/3,17:45:00,0.091,0,0,0,,3.4,0,0,0
2004/1/3,18:00:00,0,0,0,0,,0,0,0,0
2004/1/3,18:15:00,0,0,0,0,,0,0,0,0
2004/1/3,18:30:00,0,0,0,0,,0,0,0,0
2004/1/3,18:45:00,0,0,0,0,,0,0,0,0
2004/1/3,19:00:00,0,0,0,0,,0,0,0,0
2004/1/3,19:15:00,0.089,0,0,0,,3.3,0,0,0
2004/1/3,19:30:00,0,0,0,0,,0,0,0,0
2004/1/3,19:45:00,0,0,0,0,,0,0,0,0
2004/1/3,20:00:00,0,0,0,0,,0,0,0,0
2004/1/3,20:15:00,0,0,0,0,,0,0,0,0
2004/1/3,20:30:00,0,0,0,0,,0,0,0,0
2004/1/3,20:45:00,0,0,0,0,,0,0,0,0
2004/1/3,21:00:00,0.085,0,0,0,,3.1,0,0,0
2004/1/3,21:15:00,0,0,0,0,,0,0,0,0
2004/1/3,21:30:00,0,0,0,0,,0,0,0,0
2004/1/3,21:45:00,0,0,0,0,,0,0,0,0
2004/1/3,22:00:00,0,0,0,0,,0,0,0,0
2004/1/3,22:15:00,0.047,0,0,0,,1.7,0,0,0
2004/1/3,22:30:00,0.068,0,0,0,,2.5,0,0,0
2004/1/3,22:45:00,0,0,0,0,,0,0,0,0
2004/1/3,23:00:00,0,0,0,0,,0,0,0,0
2004/1/3,23:15:00,0,0,0,0,,0,0,0,0
2004/1/3,23:30:00,0,0,0,0,,0,0,0,0
2004/1/3,23:45:00,0,0,0,0,,0,0,0,0
2004/1/4,0:00:00,0,0,0.086,0,,0,0,3.1,0
2004/1/4,0:15:00,0,0,0,0,,0,0,0,0
2004/1/4,0:30:00,0,0,0,0,,0,0,0,0
2004/1/4,0:45:00,0,0,0,0,,0,0,0,0
2004/1/4,1:00:00,0,0,0.212,0,,0,0,7.8,0
2004/1/4,1:15:00,0,0,0.338,0,,0,0,12.3,0
2004/1/4,1:30:00,0,0,0.319,0,,0,0,11.7,0
2004/1/4,1:45:00,0,0,0.319,0,,0,0,11.7,0
2004/1/4,2:00:00,0,0,0.309,0,,0,0,11.4,0
2004/1/4,2:15:00,0,0,0.304,0,,0,0,11.2,0
2004/1/4,2:30:00,0,0,0.063,0,,0,0,2.3,0
2004/1/4,2:45:00,0,0,0,0,,0,0,0,0
2004/1/4,3:00:00,0,0,0,0,,0,0,0,0
2004/1/4,3:15:00,0,0,0,0,,0,0,0,0
2004/1/4,3:30:00,0,0,0.067,0,,0,0,2.5,0
2004/1/4,3:45:00,0,0,0,0,,0,0,0,0
2004/1/4,4:00:00,0,0,0,0,,0,0,0,0
2004/1/4,4:15:00,0,0,0,0,,0,0,0,0
2004/1/4,4:30:00,0,0,0,0,,0,0,0,0
2004/1/4,4:45:00,0,0,0,0,,0,0,0,0
2004/1/4,5:00:00,0,0,0.309,0,,0,0,11.4,0
2004/1/4,5:15:00,0,0,0.324,0,,0,0,11.9,0
2004/1/4,5:30:00,0,0,0.056,0,,0,0,2.1,0
2004/1/4,5:45:00,0,0,0,0,,0,0,0,0
2004/1/4,6:00:00,0,0,0,0,,0,0,0,0
2004/1/4,6:15:00,0,0,0,0,,0,0,0,0
2004/1/4,6:30:00,0,0,0,0,,0,0,0,0
2004/1/4,6:45:00,0,0,0.182,0,,0,0,6.6,0
2004/1/4,7:00:00,0.069,0,0.25,0,,2.5,0,9.2,0
2004/1/4,7:15:00,0.176,0,0.124,0,,6.5,0,4.6,0
2004/1/4,7:30:00,0,0,0,0,,0,0,0,0
2004/1/4,7:45:00,0,0,0,0,,0,0,0,0
2004/1/4,8:00:00,0,0,0,0,,0,0,0,0
2004/1/4,8:15:00,0,0,0,0,,0,0,0,0
2004/1/4,8:30:00,0.081,0,0.26,0,,3,0,9.5,0
2004/1/4,8:45:00,0.067,0,0.253,0,,2.5,0,9.3,0
2004/1/4,9:00:00,0.064,0,0.271,0,,2.4,0,10,0
2004/1/4,9:15:00,0,0,0.101,0,,0,0,3.7,0
2004/1/4,9:30:00,0,0,0,0,,0,0,0,0
2004/1/4,9:45:00,0,0,0,0,,0,0,0,0
2004/1/4,10:00:00,0,0,0,0,,0,0,0,0
2004/1/4,10:15:00,0,0,0,0,,0,0,0,0
2004/1/4,10:30:00,0,0,0,0,,0,0,0,0
2004/1/4,10:45:00,0.081,0,0,0,,3,0,0,0
2004/1/4,11:00:00,0,0,0,0,,0,0,0,0
2004/1/4,11:15:00,0,0,0,0,,0,0,0,0
2004/1/4,11:30:00,0,0,0,0,,0,0,0,0
2004/1/4,11:45:00,0,0,0,0,,0,0,0,0
2004/1/4,12:00:00,0,0,0,0,,0,0,0,0
2004/1/4,12:15:00,0,0,0,0,,0,0,0,0
2004/1/4,12:30:00,0.084,0,0,0,,3,0,0,0
2004/1/4,12:45:00,0,0,0,0,,0,0,0,0
2004/1/4,13:00:00,0,0,0,0,,0,0,0,0
2004/1/4,13:15:00,0,0,0,0,,0,0,0,0
2004/1/4,13:30:00,0,0,0,0,,0,0,0,0
2004/1/4,13:45:00,0,0,0.18,0,,0,0,6.6,0
2004/1/4,14:00:00,0,0,0.121,0,,0,0,4.4,0
2004/1/4,14:15:00,0,0,0,0,,0,0,0,0
2004/1/4,14:30:00,0,0,0,0,,0,0,0,0
2004/1/4,14:45:00,0,0,0,0,,0,0,0,0
2004/1/4,15:00:00,0.09,0,0,0,,3.3,0,0,0
2004/1/4,15:15:00,0,0,0,0,,0,0,0,0
2004/1/4,15:30:00,0,0,0,0,,0,0,0,0
2004/1/4,15:45:00,0,0,0,0,,0,0,0,0
2004/1/4,16:00:00,0,0,0,0,,0,0,0,0
2004/1/4,16:15:00,0,0,0,0,,0,0,0,0
2004/1/4,16:30:00,0.084,0,0,0,,3.1,0,0,0
2004/1/4,16:45:00,0,0,0,0,,0,0,0,0
2004/1/4,17:00:00,0,0,0,0,,0,0,0,0
2004/1/4,17:15:00,0,0,0,0,,0,0,0,0
2004/1/4,17:30:00,0,0,0,0,,0,0,0,0
2004/1/4,17:45:00,0.083,0,0,0,,3,0,0,0
2004/1/4,18:00:00,0,0,0,0,,0,0,0,0
2004/1/4,18:15:00,0,0,0,0,,0,0,0,0
2004/1/4,18:30:00,0,0,0,0,,0,0,0,0
2004/1/4,18:45:00,0,0,0,0,,0,0,0,0
2004/1/4,19:00:00,0.09,0,0,0,,3.3,0,0,0
2004/1/4,19:15:00,0,0,0,0,,0,0,0,0
2004/1/4,19:30:00,0,0,0,0,,0,0,0,0
2004/1/4,19:45:00,0,0,0,0,,0,0,0,0
2004/1/4,20:00:00,0,0,0,0,,0,0,0,0
2004/1/4,20:15:00,0,0,0,0,,0,0,0,0
2004/1/4,20:30:00,0.018,0,0,0,,0.7,0,0,0
2004/1/4,20:45:00,0.064,0,0,0,,2.3,0,0,0
2004/1/4,21:00:00,0,0,0,0,,0,0,0,0
2004/1/4,21:15:00,0,0,0,0,,0,0,0,0
2004/1/4,21:30:00,0,0,0,0,,0,0,0,0
2004/1/4,21:45:00,0,0,0,0,,0,0,0,0
2004/1/4,22:00:00,0,0,0,0,,0,0,0,0
2004/1/4,22:15:00,0.083,0,0,0,,3,0,0,0
2004/1/4,22:30:00,0,0,0,0,,0,0,0,0
2004/1/4,22:45:00,0,0,0,0,,0,0,0,0
2004/1/4,23:00:00,0,0,0,0,,0,0,0,0
2004/1/4,23:15:00,0,0,0,0,,0,0,0,0
2004/1/4,23:30:00,0,0,0,0,,0,0,0,0
2004/1/4,23:45:00,0,0,0.105,0,,0,0,3.9,0
2004/1/5,0:00:00,0,0,0,0,,0,0,0,0
2004/1/5,0:15:00,0,0,0,0,,0,0,0,0
2004/1/5,0:30:00,0,0,0,0,,0,0,0,0
2004/1/5,0:45:00,0,0,0,0,,0,0,0,0
2004/1/5,1:00:00,0,0,0,0,,0,0,0,0
2004/1/5,1:15:00,0,0,0.084,0,,0,0,3.1,0
2004/1/5,1:30:00,0,0,0,0,,0,0,0,0
2004/1/5,1:45:00,0,0,0,0,,0,0,0,0
2004/1/5,2:00:00,0,0,0,0,,0,0,0,0
2004/1/5,2:15:00,0,0,0,0,,0,0,0,0
2004/1/5,2:30:00,0,0,0,0,,0,0,0,0
2004/1/5,2:45:00,0,0,0,0,,0,0,0,0
2004/1/5,3:00:00,0,0,0.085,0,,0,0,3.1,0
2004/1/5,3:15:00,0,0,0,0,,0,0,0,0
2004/1/5,3:30:00,0,0,0,0,,0,0,0,0
2004/1/5,3:45:00,0,0,0,0,,0,0,0,0
2004/1/5,4:00:00,0,0,0,0,,0,0,0,0
2004/1/5,4:15:00,0,0,0.227,0,,0,0,8.3,0
2004/1/5,4:30:00,0,0,0.333,0,,0,0,12.1,0
2004/1/5,4:45:00,0,0,0.319,0,,0,0,11.7,0
2004/1/5,5:00:00,0,0,0.312,0,,0,0,11.4,0
2004/1/5,5:15:00,0,0,0.322,0,,0,0,11.8,0
2004/1/5,5:30:00,0,0,0.043,0,,0,0,1.6,0
2004/1/5,5:45:00,0,0,0,0,,0,0,0,0
2004/1/5,6:00:00,0,0,0,0,,0,0,0,0
2004/1/5,6:15:00,0,0,0,0,,0,0,0,0
2004/1/5,6:30:00,0,0,0.117,0,,0,0,4.3,0
2004/1/5,6:45:00,0,0,0,0,,0,0,0,0
2004/1/5,7:00:00,0,0,0,0,,0,0,0,0
2004/1/5,7:15:00,0,0,0.237,0,,0,0,8.6,0
2004/1/5,7:30:00,0,0,0,0,,0,0,0,0
2004/1/5,7:45:00,0.139,0,0,0,,5.1,0,0,0
2004/1/5,8:00:00,0,0,0,0,,0,0,0,0
2004/1/5,8:15:00,0,0,0,0,,0,0,0,0
2004/1/5,8:30:00,0,0,0,0,,0,0,0,0
2004/1/5,8:45:00,0.095,0,0,0,,3.5,0,0,0
2004/1/5,9:00:00,0,0,0,0,,0,0,0,0
2004/1/5,9:15:00,0,0,0,0,,0,0,0,0
2004/1/5,9:30:00,0,0,0,0,,0,0,0,0
2004/1/5,9:45:00,0,0,0,0,,0,0,0,0
2004/1/5,10:00:00,0,0,0,0,,0,0,0,0
2004/1/5,10:15:00,0.029,0,0,0,,1.1,0,0,0
2004/1/5,10:30:00,0.06,0,0,0,,2.2,0,0,0
2004/1/5,10:45:00,0,0,0,0,,0,0,0,0
2004/1/5,11:00:00,0,0,0,0,,0,0,0,0
2004/1/5,11:15:00,0,0,0,0,,0,0,0,0
2004/1/5,11:30:00,0,0,0,0,,0,0,0,0
2004/1/5,11:45:00,0,0,0,0,,0,0,0,0
2004/1/5,12:00:00,0.082,0,0,0,,3,0,0,0
2004/1/5,12:15:00,0,0,0,0,,0,0,0,0
2004/1/5,12:30:00,0,0,0,0,,0,0,0,0
2004/1/5,12:45:00,0,0,0,0,,0,0,0,0
2004/1/5,13:00:00,0,0,0,0,,0,0,0,0
2004/1/5,13:15:00,0,0,0,0,,0,0,0,0
2004/1/5,13:30:00,0,0,0,0,,0,0,0,0
2004/1/5,13:45:00,0.084,0,0,0,,3.1,0,0,0
2004/1/5,14:00:00,0,0,0,0,,0,0,0,0
2004/1/5,14:15:00,0,0,0,0,,0,0,0,0
2004/1/5,14:30:00,0,0,0,0,,0,0,0,0
2004/1/5,14:45:00,0,0,0,0,,0,0,0,0
2004/1/5,15:00:00,0,0,0,0,,0,0,0,0
2004/1/5,15:15:00,0,0,0,0,,0,0,0,0
2004/1/5,15:30:00,0.085,0,0,0,,3.1,0,0,0
2004/1/5,15:45:00,0,0,0,0,,0,0,0,0
2004/1/5,16:00:00,0,0,0,0,,0,0,0,0
2004/1/5,16:15:00,0,0,0,0,,0,0,0,0
2004/1/5,16:30:00,0,0,0,0,,0,0,0,0
2004/1/5,16:45:00,0,0,0,0,,0,0,0,0
2004/1/5,17:00:00,0.086,0,0,0,,3.2,0,0,0
2004/1/5,17:15:00,0,0,0,0,,0,0,0,0
2004/1/5,17:30:00,0,0,0,0,,0,0,0,0
2004/1/5,17:45:00,0,0,0,0,,0,0,0,0
2004/1/5,18:00:00,0,0,0,0,,0,0,0,0
2004/1/5,18:15:00,0,0,0,0,,0,0,0,0
2004/1/5,18:30:00,0,0,0,0,,0,0,0,0
2004/1/5,18:45:00,0.084,0,0,0,,3.1,0,0,0
2004/1/5,19:00:00,0,0,0,0,,0,0,0,0
2004/1/5,19:15:00,0,0,0,0,,0,0,0,0
2004/1/5,19:30:00,0,0,0.097,0,,0,0,3.6,0
2004/1/5,19:45:00,0,0,0,0,,0,0,0,0
2004/1/5,20:00:00,0,0,0,0,,0,0,0,0
2004/1/5,20:15:00,0,0,0,0,,0,0,0,0
2004/1/5,20:30:00,0,0,0.1,0,,0,0,3.7,0
2004/1/5,20:45:00,0,0,0.279,0,,0,0,10.2,0
2004/1/5,21:00:00,0,0,0,0,,0,0,0,0
2004/1/5,21:15:00,0,0,0,0,,0,0,0,0
2004/1/5,21:30:00,0,0,0,0,,0,0,0,0
2004/1/5,21:45:00,0,0,0,0,,0,0,0,0
2004/1/5,22:00:00,0.093,0,0,0,,3.4,0,0,0
2004/1/5,22:15:00,0,0,0,0,,0,0,0,0
2004/1/5,22:30:00,0,0,0.113,0,,0,0,4.1,0
2004/1/5,22:45:00,0,0,0,0,,0,0,0,0
2004/1/5,23:00:00,0,0,0,0,,0,0,0,0
2004/1/5,23:15:00,0,0,0,0,,0,0,0,0
2004/1/5,23:30:00,0,0,0,0,,0,0,0,0
2004/1/5,23:45:00,0,0,0,0,,0,0,0,0
2004/1/6,0:00:00,0,0,0,0,,0,0,0,0
2004/1/6,0:15:00,0,0,0.084,0,,0,0,3.1,0
2004/1/6,0:30:00,0,0,0,0,,0,0,0,0
2004/1/6,0:45:00,0,0,0,0,,0,0,0,0
2004/1/6,1:00:00,0,0,0,0,,0,0,0,0
2004/1/6,1:15:00,0,0,0,0,,0,0,0,0
2004/1/6,1:30:00,0,0,0,0,,0,0,0,0
2004/1/6,1:45:00,0,0,0,0,,0,0,0,0
2004/1/6,2:00:00,0,0,0.085,0,,0,0,3.1,0
2004/1/6,2:15:00,0,0,0,0,,0,0,0,0
2004/1/6,2:30:00,0,0,0,0,,0,0,0,0
2004/1/6,2:45:00,0,0,0,0,,0,0,0,0
2004/1/6,3:00:00,0,0,0,0,,0,0,0,0
2004/1/6,3:15:00,0,0,0,0,,0,0,0,0
2004/1/6,3:30:00,0,0,0.033,0,,0,0,1.2,0
2004/1/6,3:45:00,0,0,0.052,0,,0,0,1.9,0
2004/1/6,4:00:00,0,0,0,0,,0,0,0,0
2004/1/6,4:15:00,0,0,0,0,,0,0,0,0
2004/1/6,4:30:00,0,0,0.106,0,,0,0,3.9,0
2004/1/6,4:45:00,0,0,0.331,0,,0,0,12,0
2004/1/6,5:00:00,0,0,0.23,0,,0,0,8.4,0
2004/1/6,5:15:00,0,0,0.221,0,,0,0,8.1,0
2004/1/6,5:30:00,0,0,0.169,0,,0,0,6.2,0
2004/1/6,5:45:00,0,0,0.207,0,,0,0,7.6,0
2004/1/6,6:00:00,0,0,0.179,0,,0,0,6.6,0
2004/1/6,6:15:00,0,0,0,0,,0,0,0,0
2004/1/6,6:30:00,0,0,0,0,,0,0,0,0
2004/1/6,6:45:00,0,0,0,0,,0,0,0,0
2004/1/6,7:00:00,0.088,0,0,0,,3.2,0,0,0
2004/1/6,7:15:00,0,0,0,0,,0,0,0,0
2004/1/6,7:30:00,0,0,0,0,,0,0,0,0
2004/1/6,7:45:00,0,0,0,0,,0,0,0,0
2004/1/6,8:00:00,0.096,0,0,0,,3.5,0,0,0
2004/1/6,8:15:00,0,0,0,0,,0,0,0,0
2004/1/6,8:30:00,0,0,0.129,0,,0,0,4.7,0
2004/1/6,8:45:00,0,0,0,0,,0,0,0,0
2004/1/6,9:00:00,0,0,0,0,,0,0,0,0
2004/1/6,9:15:00,0,0,0.099,0,,0,0,3.6,0
2004/1/6,9:30:00,0,0,0,0,,0,0,0,0
2004/1/6,9:45:00,0,0,0,0,,0,0,0,0
2004/1/6,10:00:00,0,0,0.502,0,,0,0,18.4,0
2004/1/6,10:15:00,0,0,0.465,0,,0,0,17.1,0
2004/1/6,10:30:00,0,0,0,0,,0,0,0,0
2004/1/6,10:45:00,0,0,0,0,,0,0,0,0
2004/1/6,11:00:00,0,0,0,0,,0,0,0,0
2004/1/6,11:15:00,0,0,0,0,,0,0,0,0
2004/1/6,11:30:00,0.094,0,0,0,,3.5,0,0,0
2004/1/6,11:45:00,0,0,0,0,,0,0,0,0
2004/1/6,12:00:00,0,0,0,0,,0,0,0,0
2004/1/6,12:15:00,0,0,0,0,,0,0,0,0
2004/1/6,12:30:00,0,0,0,0,,0,0,0,0
2004/1/6,12:45:00,0,0,0,0,,0,0,0,0
2004/1/6,13:00:00,0.087,0,0,0,,3.2,0,0,0
2004/1/6,13:15:00,0,0,0,0,,0,0,0,0
2004/1/6,13:30:00,0,0,0,0,,0,0,0,0
2004/1/6,13:45:00,0,0,0,0,,0,0,0,0
2004/1/6,14:00:00,0,0,0,0,,0,0,0,0
2004/1/6,14:15:00,0,0,0,0,,0,0,0,0
2004/1/6,14:30:00,0,0,0,0,,0,0,0,0
2004/1/6,14:45:00,0.085,0,0,0,,3.1,0,0,0
2004/1/6,15:00:00,0,0,0,0,,0,0,0,0
2004/1/6,15:15:00,0,0,0,0,,0,0,0,0
2004/1/6,15:30:00,0,0,0,0,,0,0,0,0
2004/1/6,15:45:00,0,0,0,0,,0,0,0,0
2004/1/6,16:00:00,0,0,0,0,,0,0,0,0
2004/1/6,16:15:00,0,0,0,0,,0,0,0,0
2004/1/6,16:30:00,0.085,0,0,0,,3.1,0,0,0
2004/1/6,16:45:00,0,0,0,0,,0,0,0,0
2004/1/6,17:00:00,0,0,0,0,,0,0,0,0
2004/1/6,17:15:00,0,0,0,0,,0,0,0,0
2004/1/6,17:30:00,0,0,0,0,,0,0,0,0
2004/1/6,17:45:00,0.091,0,0,0,,3.4,0,0,0
2004/1/6,18:00:00,0,0,0,0,,0,0,0,0
2004/1/6,18:15:00,0,0,0,0,,0,0,0,0
2004/1/6,18:30:00,0,0,0,0,,0,0,0,0
2004/1/6,18:45:00,0,0,0,0,,0,0,0,0
2004/1/6,19:00:00,0,0,0,0,,0,0,0,0
2004/1/6,19:15:00,0,0,0,0,,0,0,0,0
2004/1/6,19:30:00,0.085,0,0,0,,3.1,0,0,0
2004/1/6,19:45:00,0,0,0,0,,0,0,0,0
2004/1/6,20:00:00,0,0,0,0,,0,0,0,0
2004/1/6,20:15:00,0.077,0,0.114,0,,2.8,0,4.2,0
2004/1/6,20:30:00,0.105,0,0,0,,3.9,0,0,0
2004/1/6,20:45:00,0,0,0,0,,0,0,0,0
2004/1/6,21:00:00,0,0,0,0,,0,0,0,0
2004/1/6,21:15:00,0,0,0,0,,0,0,0,0
2004/1/6,21:30:00,0,0,0.203,0,,0,0,7.5,0
2004/1/6,21:45:00,0,0,0.226,0,,0,0,8.3,0
2004/1/6,22:00:00,0,0,0,0,,0,0,0,0
2004/1/6,22:15:00,0,0,0,0,,0,0,0,0
2004/1/6,22:30:00,0,0,0.123,0,,0,0,4.5,0
2004/1/6,22:45:00,0,0,0,0,,0,0,0,0
2004/1/6,23:00:00,0,0,0,0,,0,0,0,0
2004/1/6,23:15:00,0,0,0,0,,0,0,0,0
2004/1/6,23:30:00,0.095,0,0,0,,3.5,0,0,0
2004/1/6,23:45:00,0,0,0,0,,0,0,0,0
2004/1/7,0:00:00,0,0,0,0,,0,0,0,0
2004/1/7,0:15:00,0,0,0,0,,0,0,0,0
2004/1/7,0:30:00,0,0,0,0,,0,0,0,0
2004/1/7,0:45:00,0,0,0.095,0,,0,0,3.5,0
2004/1/7,1:00:00,0,0,0,0,,0,0,0,0
2004/1/7,1:15:00,0,0,0,0,,0,0,0,0
2004/1/7,1:30:00,0,0,0.262,0,,0,0,9.6,0
2004/1/7,1:45:00,0,0,0.468,0,,0,0,17.2,0
2004/1/7,2:00:00,0,0,0.468,0,,0,0,17.2,0
2004/1/7,2:15:00,0,0,0.385,0,,0,0,14.1,0
2004/1/7,2:30:00,0,0,0,0,,0,0,0,0
2004/1/7,2:45:00,0,0,0,0,,0,0,0,0
2004/1/7,3:00:00,0,0,0,0,,0,0,0,0
2004/1/7,3:15:00,0,0,0.017,0,,0,0,0.6,0
2004/1/7,3:30:00,0,0,0.071,0,,0,0,2.6,0
2004/1/7,3:45:00,0,0,0,0,,0,0,0,0
2004/1/7,4:00:00,0,0,0.001,0,,0,0,0.1,0
2004/1/7,4:15:00,0,0,0.51,0,,0,0,18.8,0
2004/1/7,4:30:00,0,0,0.492,0,,0,0,18,0
2004/1/7,4:45:00,0,0,0.011,0,,0,0,0.4,0
2004/1/7,5:00:00,0,0,0,0,,0,0,0,0
2004/1/7,5:15:00,0,0,0.075,0,,0,0,2.7,0
2004/1/7,5:30:00,0,0,0,0,,0,0,0,0
2004/1/7,5:45:00,0,0,0,0,,0,0,0,0
2004/1/7,6:00:00,0,0,0,0,,0,0,0,0
2004/1/7,6:15:00,0,0,0,0,,0,0,0,0
2004/1/7,6:30:00,0,0,0.094,0,,0,0,3.4,0
2004/1/7,6:45:00,0,0,0.45,0,,0,0,16.6,0
2004/1/7,7:00:00,0,0,0.507,0,,0,0,18.7,0
2004/1/7,7:15:00,0.09,0,0.176,0,,3.3,0,6.5,0
2004/1/7,7:30:00,0,0,0,0,,0,0,0,0
2004/1/7,7:45:00,0,0,0.102,0,,0,0,3.8,0
2004/1/7,8:00:00,0,0,0,0,,0,0,0,0
2004/1/7,8:15:00,0,0,0,0,,0,0,0,0
2004/1/7,8:30:00,0,0,0,0,,0,0,0,0
2004/1/7,8:45:00,0,0,0,0,,0,0,0,0
2004/1/7,9:00:00,0.093,0,0,0,,3.4,0,0,0
2004/1/7,9:15:00,0,0,0,0,,0,0,0,0
2004/1/7,9:30:00,0.035,0,0.104,0,,1.3,0,3.8,0
2004/1/7,9:45:00,0,0,0,0,,0,0,0,0
2004/1/7,10:00:00,0,0,0,0,,0,0,0,0
2004/1/7,10:15:00,0,0,0.111,0,,0,0,4.1,0
2004/1/7,10:30:00,0,0,0,0,,0,0,0,0
2004/1/7,10:45:00,0,0,0,0,,0,0,0,0
2004/1/7,11:00:00,0,0,0,0,,0,0,0,0
2004/1/7,11:15:00,0.091,0,0,0,,3.4,0,0,0
2004/1/7,11:30:00,0,0,0,0,,0,0,0,0
2004/1/7,11:45:00,0,0,0,0,,0,0,0,0
2004/1/7,12:00:00,0,0,0,0,,0,0,0,0
2004/1/7,12:15:00,0,0,0,0,,0,0,0,0
2004/1/7,12:30:00,0.094,0,0,0,,3.5,0,0,0
2004/1/7,12:45:00,0,0,0,0,,0,0,0,0
2004/1/7,13:00:00,0,0,0,0,,0,0,0,0
2004/1/7,13:15:00,0,0,0,0,,0,0,0,0
2004/1/7,13:30:00,0,0,0,0,,0,0,0,0
2004/1/7,13:45:00,0.093,0,0,0,,3.4,0,0,0
2004/1/7,14:00:00,0,0,0,0,,0,0,0,0
2004/1/7,14:15:00,0,0,0,0,,0,0,0,0
2004/1/7,14:30:00,0,0,0,0,,0,0,0,0
2004/1/7,14:45:00,0.093,0,0,0,,3.4,0,0,0
2004/1/7,15:00:00,0,0,0,0,,0,0,0,0
2004/1/7,15:15:00,0,0,0,0,,0,0,0,0
2004/1/7,15:30:00,0,0,0,0,,0,0,0,0